Погода в Цильне

Россия / Ульяновская область     54°35′30″N   48°09′08″E
темп.,
°C
ветер,
м/с
пор.,
м/с
влажн.,
%
обл.,
%
осадки,
мм/ч
давл.,
гПа
погр.,
м
16 мая, пн
пн1601:00+10зюз1188100 0.4 100038
04:00+9зсз2387100 0.5 100061
07:00+9зсз478376 0.0 1000247
10:00+13зсз456542 0.1 1000700
13:00+15зсз4553100 1.8 10001512
16:00+15з4553100 1.9 10001126
19:00+14з466562 0.2 1000239
22:00+10зсз3479100 0.4 100065
17 мая, вт
вт1701:00+10з4689100 1.6 1000163
04:00+9ссз3492100 5.8 1000175
07:00+8з5895100 8.6 1000706
10:00+8зсз4786100 17.0 1002870
13:00+9зюз2481100 0.8 1002784
16:00+11з137297 2.4 1001763
19:00+11зюз137895 1.5 1001412
22:00+8зсз3590100 2.7 1001114
18 мая, ср
ср1801:00+6зсз22919 0.1 100120
04:00+6зсз3492100 0.1 100082
07:00+7з3487100 0.0 1001208
10:00+9зсз4577100 0.3 1001904
13:00+7з6887100 0.5 1002781
16:00+11с6876100 0.6 1003992
19:00+10ссз368035 0.2 1005678
22:00+8ссз008767 0.3 100615
19 мая, чт
чт1901:00+7сз479299 0.2 1007216
04:00+7зсз368799 0.3 1008190
07:00+7зсз3576100 0.1 1008224
10:00+9зсз6672100 0.5 1008948
13:00+7зсз4583100 0.3 1009752
16:00+8ссз457999 0.8 1009770
19:00+7ссз3474100 0.1 1009832
22:00+6сз2279100 0.1 100938
20 мая, пт
пт2001:00+5ссз4785100 0.0 1009228
04:00+3ссз489145 0.0 1010239
07:00+4сз698284 0.0 1011404
10:00+8ссз686785 0.0 10101379
13:00+11ссз685199 0.2 10102001
16:00+11сз675182 0.3 10091699
19:00+8сз6971100 0.7 1010834
22:00+5зсз4984100 0.8 1010284